Location: ??????
(31.2056°N, 45.3906°E)
Time: 19:07:56
(UTC+00:00)

Ariane Rocket - Pass Details

Date: 09 April 2020
Orbit: 761 x 769 km, 98.7° (Epoch: 28 May)

Event Time Altitude Azimuth Distance (km) Brightness Sun altitude
Exits shadow 16:42:07 - 172° (S) 2,764 5.6 -17.1°
Reaches altitude 10° 16:43:18 10° 173° (S) 2,292 5.2 -17.3°
Maximum altitude 16:48:20 72° 257° (WSW) 802 3.2 -18.3°
Drops below altitude 10° 16:53:24 10° 343° (NNW) 2,300 6.0 -19.3°
Sets 16:55:43 0° 345° (NNW) 3,228 6.8 -19.8°
